Regional Weather Roundup
Issued by NWS

Home | Current Version | Previous Version | Graphics & Text | Print | Product List | Glossary On
Versions: 1 2 3 4 5 6 7 8 9 10 11 12 13 14 15 16 17 18 19 20 21 22 23 24 25 26 27 28 29 30 31 32 33 34 35 36 37 38 39 40 41 42 43 44 45 46 47 48 49 50
000
ASUS43 KOAX 241002
RWRNE

WEATHER ROUNDUP FOR NEBRASKA
NATIONAL WEATHER SERVICE OMAHA NE
500 AM CDT SUN SEP 24 2017

NOTES: SATELLITE DATA IS BEING USED TO AUGMENT CLOUD COVER ABOVE
       12000 FEET.
       "FAIR" INDICATES FEW OR NO CLOUDS BELOW 12,000 FEET WITH NO
       SIGNIFICANT WEATHER AND/OR OBSTRUCTIONS TO VISIBILITY.


NEZ001>004-019>022-054>056-241100-
NEBRASKA PANHANDLE

CITY           SKY/WX    TMP DP  RH WIND       PRES   REMARKS
SCOTTSBLUFF    CLOUDY    46  43  89 NW7       29.97R
ALLIANCE       CLOUDY    45  43  93 N10       29.95R
CHADRON        CLOUDY    45  43  93 N12       29.96F
GORDON         CLOUDY    46  45  95 N10       29.95R
KIMBALL        CLOUDY    43  43 100 NW10      29.97S FOG
SIDNEY         CLOUDY    44  43  96 N13       29.97R
$$

NEZ057>060-069>072-079>082-241100-
SOUTHWEST NEBRASKA

CITY           SKY/WX    TMP DP  RH WIND       PRES   REMARKS
NORTH PLATTE   HVY RAIN  51  50  96 NW9       29.90S FOG
IMPERIAL       RAIN      49  47  93 NE10      29.91R
LEXINGTON      CLOUDY    60  58  94 CALM      29.86R
MCCOOK         LGT RAIN  60  60 100 CALM      29.85S
OGALLALA       LGT RAIN  50  48  93 E5        29.91R
$$

NEZ005>010-023>029-035>040-094-241100-
NORTH CENTRAL NEBRASKA

CITY           SKY/WX    TMP DP  RH WIND       PRES   REMARKS
VALENTINE      LGT RAIN  51  49  92 NW8       29.90F
AINSWORTH      LGT RAIN  49  49 100 NW7       29.90F
BROKEN BOW     CLOUDY    56  55  97 N3        29.85F
O`NEILL        CLOUDY    54  54 100 CALM      29.88F FOG
ORD            CLOUDY    57  55  93 CALM      29.85F
THEDFORD       RAIN      49  49  97 NW8       29.91S
$$

NEZ041-046>049-061>064-073>077-083>087-241100-
SOUTH CENTRAL NEBRASKA

CITY           SKY/WX    TMP DP  RH WIND       PRES   REMARKS
GRAND ISLAND   PTCLDY    66  62  87 S7        29.87F
AURORA         CLEAR     65  62  90 SE8       29.87F
HASTINGS       PTCLDY    70  61  73 S8        29.88S
HEBRON         CLEAR     70  63  78 S8        29.90R
HOLDREGE       LGT RAIN  64  61  91 SE6       29.85F
KEARNEY        PTCLDY    59  58  96 E5        29.86F
YORK           CLEAR     68  63  83 S12       29.89S
$$

NEZ011>018-030>034-042>045-241100-
NORTHEAST NEBRASKA

CITY           SKY/WX    TMP DP  RH WIND       PRES   REMARKS
NORFOLK        MOCLDY    68  64  87 S10       29.87R
ALBION         PTCLDY    58  57  96 CALM      29.88F
BLAIR          CLEAR     73  65  77 S8        29.92R
COLUMBUS       PTCLDY    71  63  75 S12       29.88S
FREMONT        CLEAR     71  64  77 SE7       29.91R
TEKAMAH        CLEAR     67  64  90 SE5       29.90S
WAYNE          PTCLDY    68  65  91 S10       29.88S
$$

NEZ050>053-065>068-078-088>093-241100-
SOUTHEAST NEBRASKA

CITY           SKY/WX    TMP DP  RH WIND       PRES   REMARKS
LINCOLN        PTCLDY    68  62  81 S6        29.91R
OMAHA EPPLEY   MOCLDY    70  64  81 SE7       29.91S
BEATRICE       CLEAR     70  63  78 SE6       29.91R
FALLS CITY     CLEAR     68  65  90 SE5       29.91S
NEBRASKA CITY  CLEAR     69  68  96 S7        29.92S
PLATTSMOUTH    CLEAR     71  67  88 SE7       29.92R
$$

NEZ044-045-051>053-067-241100-
OMAHA AREA

CITY           SKY/WX    TMP DP  RH WIND       PRES   REMARKS
OMAHA EPPLEY   MOCLDY    70  64  81 SE7       29.91S
BLAIR          CLEAR     73  65  77 S8        29.92R
FREMONT        CLEAR     71  64  77 SE7       29.91R
MILLARD        CLEAR     71  66  84 E3        29.91S
PLATTSMOUTH    CLEAR     71  67  88 SE7       29.92R
WAHOO          FAIR      66  64  92 SE6       29.91R
$$




USA.gov is the U.S. government's official web portal to all federal, state and local government web resources and services.